Terminal Aerodrome Forecast
Issued by NWS Flagstaff, AZ

Home | Current Version | Previous Version | Text Only | Print | Product List | Glossary On
Versions: 1 2 3 4 5 6 7 8 9 10 11 12 13 14 15
000
FTUS45 KFGZ 211600 AAA
TAFINW
TAF AMD
KINW 211629Z 2116/2212 VRB05KT P6SM FEW090
     FM212000 20010G18KT P6SM SCT090
     FM220200 VRB06KT P6SM FEW090=

USA.gov is the U.S. government's official web portal to all federal, state and local government web resources and services.